Regional Weather Roundup
Issued by NWS

Home | Current Version | Previous Version | Text Only | Print | Product List | Glossary Off
Versions: 1 2 3 4 5 6 7 8 9 10 11 12 13 14 15 16 17 18 19 20 21 22 23 24 25 26 27 28 29 30 31 32 33 34 35 36 37 38 39 40 41 42 43 44 45 46 47 48 49 50

000
ASUS43 KMPX 162001
RWRMN
WEATHER ROUNDUP FOR MINNESOTA
NATIONAL WEATHER SERVICE TWIN CITIES/CHANHASSEN MN
200 PM CST MON JAN 16 2017


NOTE: "FAIR" INDICATES FEW OR NO CLOUDS BELOW 12,000 FEET WITH NO
SIGNIFICANT WEATHER AND/OR OBSTRUCTIONS TO VISIBILITY. N/A MEANS
CURRENT SKY AND/OR WEATHER CONDITIONS ARE NOT AVAILABLE.

MNZ060>063-068>070-162100-
   Twin Cities Metro

CITY           SKY/WX    TMP DP  RH WIND       PRES   REMARKS
TWIN CITIES    CLOUDY    30  19  63 E6        30.07F WCI  24
ST PAUL        CLOUDY    30  21  69 CALM      30.08F HAZE
CRYSTAL        CLOUDY    31  23  72 NE3       30.06F HAZE
BLAINE         CLOUDY    32  25  74 NE3       30.07F
LAKEVILLE      CLOUDY    25  19  80 NE6       30.05F WCI  18
EDEN PRAIRIE   CLOUDY    30  23  75 NE6       30.05F HAZE    WCI  24
SOUTH ST PAUL  CLOUDY    31  20  65 E5        30.07F WCI  26
LAKE ELMO      CLOUDY    30  21  69 NE6       30.08F WCI  24
$$
MNZ001>005-007-008-013>017-022>024-027-028-162100-
   Northwest Minnesota

CITY           SKY/WX    TMP DP  RH WIND       PRES   REMARKS
BEMIDJI        SUNNY     27  19  71 E5        30.01F WCI  21
HALLOCK        CLOUDY    12   7  79 S3        30.03S
ROSEAU         CLOUDY    19  12  73 CALM      30.01F
WARROAD        CLOUDY    21  12  68 S5        30.02F WCI  15
THIEF RVR FALL SUNNY     21  12  68 SW5       30.03F WCI  15
CROOKSTON      SUNNY     16  10  79 S8        30.04F WCI   5
FOSSTON        SUNNY     25  14  63 S5        30.02F WCI  19
DETROIT LAKES  CLOUDY    27  23  86 S5        30.03F WCI  21
MOORHEAD       SUNNY     18  10  73 S6        30.06F WCI   9
PARK RAPIDS    CLOUDY    28  18  66 CALM      30.01F
MAHNOMEN       FAIR      20  14  78 S8        30.02F WCI  10
$$
MNZ006-009>011-018-025>026-162100-
   North Central Minnesota

CITY           SKY/WX    TMP DP  RH WIND       PRES   REMARKS
BAUDETTE       SUNNY     24  12  60 NE3       30.01F
FLAG ISLAND    MOSUNNY   16   9  73 SE6       30.01F WCI   7
INTL FALLS     SUNNY     28  15  58 SE5       30.02F WCI  23
WASKISH        SUNNY     25  18  74 CALM      30.02F
BIG FORK       SUNNY     34  21  60 S3        30.03F
LONGVILLE      SUNNY     34  21  60 CALM      30.03F
GRAND RAPIDS   SUNNY     29  21  72 CALM      30.05F
CRANE LAKE     SUNNY     30  18  59 CALM      30.06S
ORR            SUNNY     34  16  47 CALM      30.01F
COOK           SUNNY     36  21  55 CALM      30.04F
WALKER         FAIR      27  18  69 E5        30.02F WCI  22
$$
MNZ012-019>021-037-162100-
   Northeast Minnesota

CITY           SKY/WX    TMP DP  RH WIND       PRES   REMARKS
DULUTH         CLOUDY    33  21  61 SW6       30.05F WCI  28
ELY            SUNNY     36  18  48 W3        30.03F
HIBBING        SUNNY     25  17  72 NW3       30.04F
EVELETH        SUNNY     31  20  64 CALM      30.05F
DULUTH HARBOR  CLOUDY    30  21  69 CALM      30.10F
TWO HARBORS    SUNNY     37  25  60 S3        30.04F
SILVER BAY     SUNNY     43  25  49 SW3       30.03F
GRAND MARAIS     N/A     35  27  72 SW6       30.07F WCI  30
G MARAIS ARPRT SUNNY     37  14  38 CALM      30.03F
$$
MNZ029>031-032-039>041-046>048-054>057-064-162100-
   West Central Minnesota

CITY           SKY/WX    TMP DP  RH WIND       PRES   REMARKS
FERGUS FALLS   CLOUDY    21  16  79 CALM      30.10S
WHEATON        CLOUDY    25  19  80 N7        30.07F WCI  17
MORRIS         CLOUDY    27  21  80 CALM      30.03F
ALEXANDRIA     CLOUDY    29  19  66 CALM      30.03F
ELBOW LAKE     FAIR      24  18  77 N3        30.04F HAZE
WADENA         CLOUDY    27  18  69 CALM      30.04S
GLENWOOD       CLOUDY    32  21  64 CALM      30.03S
APPLETON       CLOUDY    25  18  74 E3        30.04F
ORTONVILLE     CLOUDY    27  18  69 CALM      30.04S
MADISON        CLOUDY    28  21  74 SE5       30.03F WCI  23
WILLMAR        CLOUDY    30  27  86 CALM      30.05F
$$
MNZ033>034-036-042>043-049>051-058-059-162100-
   Central Minnesota

CITY           SKY/WX    TMP DP  RH WIND       PRES   REMARKS
ST CLOUD       CLOUDY    27  25  92 SE3       30.05F FOG
SAUK CENTRE    MOCLDY    28  20  71 SE7       30.04F WCI  21
PAYNESVILLE    CLOUDY    30  25  81 CALM      30.05F
AITKIN         CLOUDY    32  18  55 CALM      30.04F
PINE RIVER     CLOUDY    27  19  74 CALM      30.07F
BRAINERD       CLOUDY    29  19  66 CALM      30.05F
STAPLES        CLOUDY    27  18  69 CALM      30.04F
LONG PRAIRIE   FAIR      28  19  69 CALM      30.04F
LITTLE FALLS   CLOUDY    30  19  64 CALM      30.05F
LITCHFIELD     CLOUDY    30  28  93 E5        30.04F WCI  25
BUFFALO        CLOUDY    31  21  65 E5        30.06F WCI  27
MAPLE LAKE     CLOUDY    32  26  79 E5        30.06F WCI  27
HUTCHINSON     CLOUDY    31  28  88 NE7       30.05F FOG     WCI  24
$$
MNZ037-044-045-052-053-162100-
   East Central Minnesota

CITY           SKY/WX    TMP DP  RH WIND       PRES   REMARKS
PRINCETON      CLOUDY    32  21  64 CALM      30.07F
MORA           CLOUDY    28  19  69 CALM      30.09F
CAMBRIDGE      CLOUDY    30  19  64 CALM      30.05F
RUSH CITY      CLOUDY    28  18  64 CALM      30.08F
MOOSE LAKE     CLOUDY    32  19  59 S5        30.04F WCI  27
HINCKLEY       FAIR      30  21  69 S5        30.08F WCI  25
CLOQUET        CLOUDY    30  16  55 SW7       30.06S WCI  23
MCGREGOR       CLOUDY    34  21  60 CALM      30.06S
$$
MNZ071>073-080-081-089-090-097-098-162100-
   Southwest Minnesota

CITY           SKY/WX    TMP DP  RH WIND       PRES   REMARKS
MONTEVIDEO     CLOUDY    28  21  74 CALM      30.05F
GRANITE FALLS  CLOUDY    32  25  77 CALM      30.05F
CANBY            N/A     32  22  66 CALM      30.04S
MARSHALL       CLOUDY    31  22  69 NE5       30.03F WCI  26
REDWOOD FALLS  CLOUDY    31  24  75 VRB5      30.03F WCI  26
OLIVIA         CLOUDY    30  27  86 E5        30.03F WCI  25
PIPESTONE      CLOUDY    32  27  80 NE7       29.96F WCI  26
WINDOM         CLOUDY    30  28  93 NE6       29.99F FOG     WCI  24
WORTHINGTON    CLOUDY    30  27  88 N12       29.98F FOG     WCI  20
JACKSON        FOG       28  28 100 NE10      29.98F VSB 1/4 WCI  19
TRACY          CLOUDY    30  26  83 NE5       30.01F WCI  25
SLAYTON        CLOUDY    29  24  79 NE6       30.00F WCI  23
$$
MNZ065>067-074>077-082>085-091>093-162100-
   South Central Minnesota

CITY           SKY/WX    TMP DP  RH WIND       PRES   REMARKS
MANKATO        CLOUDY    31  27  85 NE8       30.03F WCI  23
NEW ULM        FOG       28  28 100 NE5       30.02F VSB 1/2 WCI  23
ST JAMES       CLOUDY    30  28  93 CALM      30.02F FOG
FAIRMONT       MIX PCPN  31  29  92 NE8       30.00F FOG     WCI  23
GLENCOE        CLOUDY    31  30  96 NE6       30.04F FOG     WCI  25
FARIBAULT        N/A     28  21  74 NE5       30.04F WCI  23
OWATONNA       LGT RAIN  30  27  86 NE8       30.02F WCI  23
WASECA         MIX PCPN  32  30  93 NE7       30.03F WCI  26
ALBERT LEA     MIX PCPN  32  32 100 NE9       29.99F WCI  24
$$
MNZ078>079-086>088-094>096-162100-
   Southeast Minnesota

CITY           SKY/WX    TMP DP  RH WIND       PRES   REMARKS
ROCHESTER      FRZ RAIN  29  28  96 E12       30.01F FOG     WCI  19
RED WING       CLOUDY    28  19  69 CALM      30.06F
STANTON        CLOUDY    29  23  78 NE8       30.04F WCI  21
DODGE CENTER   MIX PCPN  28  27  93 CALM      30.01F
WINONA         MIX PCPN  30  23  74 CALM      30.08F
AUSTIN         MIX PCPN  30  28  93 E7        29.99F WCI  23
PRESTON        LGT RAIN  30  28  94 NE6       30.01F WCI  24
$$
ABBREVIATIONS USED IN REMARKS
   TC - TEMPERATURES IN CELSIUS
  WCI - WIND CHILL INDEX
   HX - HEAT INDEX
  VSB - VISIBILITY
$$




USA.gov is the U.S. government's official web portal to all federal, state and local government web resources and services.